Time,TemperatureF,DewpointF,PressureIn,WindDirection,WindDirectionDegrees,WindSpeedMPH,WindSpeedGustMPH,Humidity,HourlyPrecipIn,Conditions,Clouds,dailyrainin,SoftwareType,DateUTC
2013-08-08 00:00:00,75.2,69.7,30.03,ENE,64,0.0,0.0,83,0.00,,SKC,1.82,VWS V14.00,2013-08-08 04:00:00,
2013-08-08 00:01:00,75.2,69.7,30.03,ENE,64,0.0,0.0,83,0.00,,SKC,1.82,VWS V14.00,2013-08-08 04:01:00,
2013-08-08 00:06:00,75.2,69.7,30.03,ENE,64,0.0,0.0,83,0.00,,SKC,0.00,VWS V14.00,2013-08-08 04:06:00,
2013-08-08 00:11:00,75.2,69.7,30.03,ENE,64,0.0,0.0,83,0.00,,SKC,0.00,VWS V14.00,2013-08-08 04:11:00,
2013-08-08 00:16:00,75.2,69.7,30.03,ENE,64,0.0,0.0,83,0.00,,SKC,0.00,VWS V14.00,2013-08-08 04:16:00,
2013-08-08 00:21:00,75.2,69.7,30.03,ENE,64,0.0,0.0,83,0.00,,SKC,0.00,VWS V14.00,2013-08-08 04:21:00,
2013-08-08 00:26:00,75.2,69.7,30.03,ENE,64,0.0,0.0,83,0.00,,SKC,0.00,VWS V14.00,2013-08-08 04:26:00,
2013-08-08 00:31:00,75.2,69.7,30.03,ENE,64,0.0,0.0,83,0.00,,SKC,0.00,VWS V14.00,2013-08-08 04:31:00,
2013-08-08 00:36:00,75.2,69.7,30.03,ENE,64,0.0,0.0,83,0.00,,SKC,0.00,VWS V14.00,2013-08-08 04:36:00,
2013-08-08 00:41:00,75.2,69.7,30.03,ENE,64,0.0,0.0,83,0.00,,SKC,0.00,VWS V14.00,2013-08-08 04:41:00,
2013-08-08 00:46:00,75.2,69.7,30.03,ENE,64,0.0,0.0,83,0.00,,SKC,0.00,VWS V14.00,2013-08-08 04:46:00,
2013-08-08 00:51:00,75.2,69.7,30.03,ENE,64,0.0,0.0,83,0.00,,SKC,0.00,VWS V14.00,2013-08-08 04:51:00,
2013-08-08 00:56:00,75.2,69.7,30.03,ENE,64,0.0,0.0,83,0.00,,SKC,0.00,VWS V14.00,2013-08-08 04:56:00,
2013-08-08 01:01:00,75.2,69.7,30.03,ENE,64,0.0,0.0,83,0.00,,SKC,0.00,VWS V14.00,2013-08-08 05:01:00,
2013-08-08 01:06:00,75.2,69.7,30.03,ENE,64,0.0,0.0,83,0.00,,SKC,0.00,VWS V14.00,2013-08-08 05:06:00,
2013-08-08 01:11:00,75.2,69.7,30.03,ENE,64,0.0,0.0,83,0.00,,SKC,0.00,VWS V14.00,2013-08-08 05:11:00,
2013-08-08 01:16:00,75.2,69.7,30.03,ENE,64,0.0,0.0,83,0.00,,SKC,0.00,VWS V14.00,2013-08-08 05:16:00,
2013-08-08 01:21:00,75.2,69.7,30.03,ENE,64,0.0,0.0,83,0.00,,SKC,0.00,VWS V14.00,2013-08-08 05:21:00,
2013-08-08 01:26:00,75.2,69.7,30.03,ENE,64,0.0,0.0,83,0.00,,SKC,0.00,VWS V14.00,2013-08-08 05:26:00,
2013-08-08 01:31:00,75.2,69.7,30.03,ENE,64,0.0,0.0,83,0.00,,SKC,0.00,VWS V14.00,2013-08-08 05:31:00,
2013-08-08 01:36:00,75.2,69.7,30.03,ENE,64,0.0,0.0,83,0.00,,SKC,0.00,VWS V14.00,2013-08-08 05:36:00,
2013-08-08 01:41:00,75.2,69.7,30.03,ENE,64,0.0,0.0,83,0.00,,SKC,0.00,VWS V14.00,2013-08-08 05:41:00,
2013-08-08 01:46:00,75.2,69.7,30.03,ENE,64,0.0,0.0,83,0.00,,SKC,0.00,VWS V14.00,2013-08-08 05:46:00,
2013-08-08 01:51:00,75.2,69.7,30.03,ENE,64,0.0,0.0,83,0.00,,SKC,0.00,VWS V14.00,2013-08-08 05:51:00,
2013-08-08 01:56:00,75.2,69.7,30.03,ENE,64,0.0,0.0,83,0.00,,SKC,0.00,VWS V14.00,2013-08-08 05:56:00,
2013-08-08 02:01:00,75.2,69.7,30.03,ENE,64,0.0,0.0,83,0.00,,SKC,0.00,VWS V14.00,2013-08-08 06:01:00,
2013-08-08 02:06:00,75.2,69.7,30.03,ENE,64,0.0,0.0,83,0.00,,SKC,0.00,VWS V14.00,2013-08-08 06:06:00,
2013-08-08 02:11:00,75.2,69.7,30.03,ENE,64,0.0,0.0,83,0.00,,SKC,0.00,VWS V14.00,2013-08-08 06:11:00,
2013-08-08 02:16:00,75.2,69.7,30.03,ENE,64,0.0,0.0,83,0.00,,SKC,0.00,VWS V14.00,2013-08-08 06:16:00,
2013-08-08 02:21:00,75.2,69.7,30.02,ENE,64,0.0,0.0,83,0.00,,SKC,0.00,VWS V14.00,2013-08-08 06:21:00,
2013-08-08 02:26:00,75.2,69.7,30.02,ENE,64,0.0,0.0,83,0.00,,SKC,0.00,VWS V14.00,2013-08-08 06:26:00,
2013-08-08 02:31:00,75.2,69.7,30.02,ENE,64,0.0,0.0,83,0.00,,SKC,0.00,VWS V14.00,2013-08-08 06:31:00,
2013-08-08 02:36:00,75.2,69.7,30.02,ENE,64,0.0,0.0,83,0.00,,SKC,0.00,VWS V14.00,2013-08-08 06:36:00,
2013-08-08 02:41:00,75.2,69.7,30.02,ENE,64,0.0,0.0,83,0.00,,SKC,0.00,VWS V14.00,2013-08-08 06:41:00,
2013-08-08 02:46:00,75.2,69.7,30.02,ENE,64,0.0,0.0,83,0.00,,SKC,0.00,VWS V14.00,2013-08-08 06:46:00,
2013-08-08 02:51:00,75.2,69.7,30.02,ENE,64,0.0,0.0,83,0.00,,SKC,0.00,VWS V14.00,2013-08-08 06:51:00,
2013-08-08 02:56:00,75.2,69.7,30.02,ENE,64,0.0,0.0,83,0.00,,SKC,0.00,VWS V14.00,2013-08-08 06:56:00,
2013-08-08 03:01:00,75.2,69.7,30.02,ENE,64,0.0,0.0,83,0.00,,SKC,0.00,VWS V14.00,2013-08-08 07:01:00,
2013-08-08 03:06:00,75.2,69.7,30.02,ENE,64,0.0,0.0,83,0.00,,SKC,0.00,VWS V14.00,2013-08-08 07:06:00,
2013-08-08 03:11:00,75.2,69.7,30.02,ENE,64,0.0,0.0,83,0.00,,SKC,0.00,VWS V14.00,2013-08-08 07:11:00,
2013-08-08 03:16:00,75.2,69.7,30.02,ENE,64,0.0,0.0,83,0.00,,SKC,0.00,VWS V14.00,2013-08-08 07:16:00,
2013-08-08 03:21:00,75.2,69.7,30.01,ENE,64,0.0,0.0,83,0.00,,SKC,0.00,VWS V14.00,2013-08-08 07:21:00,
2013-08-08 03:26:00,75.2,69.7,30.01,ENE,64,0.0,0.0,83,0.00,,SKC,0.00,VWS V14.00,2013-08-08 07:26:00,
2013-08-08 03:31:00,75.2,69.7,30.01,ENE,64,0.0,0.0,83,0.00,,SKC,0.00,VWS V14.00,2013-08-08 07:31:00,
2013-08-08 03:36:00,75.2,69.7,30.01,ENE,64,0.0,0.0,83,0.00,,SKC,0.00,VWS V14.00,2013-08-08 07:36:00,
2013-08-08 03:41:00,75.2,69.7,30.01,ENE,64,0.0,0.0,83,0.00,,SKC,0.00,VWS V14.00,2013-08-08 07:41:00,
2013-08-08 03:46:00,75.2,69.7,30.01,ENE,64,0.0,0.0,83,0.00,,SKC,0.00,VWS V14.00,2013-08-08 07:46:00,
2013-08-08 03:51:00,75.2,69.7,30.01,ENE,64,0.0,0.0,83,0.00,,SKC,0.00,VWS V14.00,2013-08-08 07:51:00,
2013-08-08 03:56:00,75.2,69.7,30.01,ENE,64,0.0,0.0,83,0.00,,SKC,0.00,VWS V14.00,2013-08-08 07:56:00,
2013-08-08 04:01:00,75.2,69.7,30.01,ENE,64,0.0,0.0,83,0.00,,SKC,0.00,VWS V14.00,2013-08-08 08:01:00,
2013-08-08 04:06:00,74.8,68.9,29.95,ENE,59,0.0,0.0,82,0.00,,SKC,0.00,VWS V14.00,2013-08-08 08:06:00,
2013-08-08 04:11:00,74.8,68.9,29.95,ENE,59,0.0,0.0,82,0.00,,SKC,0.00,VWS V14.00,2013-08-08 08:11:00,
2013-08-08 04:16:00,74.8,68.9,29.95,ENE,59,0.0,0.0,82,0.00,,SKC,0.00,VWS V14.00,2013-08-08 08:16:00,
2013-08-08 04:21:00,74.6,68.8,29.94,ENE,59,0.0,0.0,82,0.00,,SKC,0.00,VWS V14.00,2013-08-08 08:21:00,
2013-08-08 04:26:00,74.6,69.1,29.94,ENE,59,0.0,0.0,83,0.00,,SKC,0.00,VWS V14.00,2013-08-08 08:26:00,
2013-08-08 04:31:00,74.6,69.1,29.94,ENE,59,0.0,0.0,83,0.00,,SKC,0.00,VWS V14.00,2013-08-08 08:31:00,
2013-08-08 04:36:00,74.6,69.1,29.94,ENE,59,0.0,0.0,83,0.00,,SKC,0.00,VWS V14.00,2013-08-08 08:36:00,
2013-08-08 04:41:00,74.5,69.0,29.94,ENE,59,0.0,0.0,83,0.00,,SKC,0.00,VWS V14.00,2013-08-08 08:41:00,
2013-08-08 04:46:00,74.5,69.0,29.94,ENE,59,0.0,0.0,83,0.00,,SKC,0.00,VWS V14.00,2013-08-08 08:46:00,
2013-08-08 04:51:00,74.5,69.0,29.94,ENE,59,0.0,1.0,83,0.00,,SKC,0.00,VWS V14.00,2013-08-08 08:51:00,
2013-08-08 04:56:00,74.3,68.8,29.94,ENE,59,0.0,0.0,83,0.00,,SKC,0.00,VWS V14.00,2013-08-08 08:56:00,
2013-08-08 05:01:00,74.1,68.6,29.94,ENE,76,0.0,5.0,83,0.00,,SKC,0.00,VWS V14.00,2013-08-08 09:01:00,
2013-08-08 05:06:00,74.1,68.6,29.94,ENE,76,0.0,0.0,83,0.00,,SKC,0.00,VWS V14.00,2013-08-08 09:06:00,
2013-08-08 05:11:00,74.0,68.5,29.94,ENE,76,0.0,3.0,83,0.00,,SKC,0.00,VWS V14.00,2013-08-08 09:11:00,
2013-08-08 05:16:00,74.0,68.5,29.94,ENE,76,0.0,0.0,83,0.00,,SKC,0.00,VWS V14.00,2013-08-08 09:16:00,
2013-08-08 05:21:00,74.0,68.5,29.95,ENE,76,0.0,0.0,83,0.00,,SKC,0.00,VWS V14.00,2013-08-08 09:21:00,
2013-08-08 05:26:00,74.0,68.5,29.95,ENE,76,0.0,0.0,83,0.00,,SKC,0.00,VWS V14.00,2013-08-08 09:26:00,
2013-08-08 05:31:00,74.0,68.5,29.95,ENE,76,0.0,0.0,83,0.00,,SKC,0.00,VWS V14.00,2013-08-08 09:31:00,
2013-08-08 05:36:00,74.0,68.5,29.95,ENE,76,0.0,0.0,83,0.00,,SKC,0.00,VWS V14.00,2013-08-08 09:36:00,
2013-08-08 05:41:00,74.1,68.6,29.95,ENE,76,0.0,3.0,83,0.00,,SKC,0.00,VWS V14.00,2013-08-08 09:41:00,
2013-08-08 05:46:00,74.1,68.6,29.95,ENE,76,0.0,0.0,83,0.00,,SKC,0.00,VWS V14.00,2013-08-08 09:46:00,
2013-08-08 05:51:00,74.1,68.3,29.95,ENE,76,0.0,0.0,82,0.00,,SKC,0.00,VWS V14.00,2013-08-08 09:51:00,
2013-08-08 05:56:00,74.1,68.3,29.95,ENE,76,0.0,0.0,82,0.00,,SKC,0.00,VWS V14.00,2013-08-08 09:56:00,
2013-08-08 06:00:00,74.1,68.3,29.95,ENE,76,0.0,0.0,82,0.00,,SKC,0.00,VWS V14.00,2013-08-08 10:00:00,
2013-08-08 06:05:00,74.1,68.3,29.95,ENE,76,0.0,0.0,82,0.00,,SKC,0.00,VWS V14.00,2013-08-08 10:05:00,
2013-08-08 06:10:00,74.1,68.3,29.95,ENE,76,0.0,2.0,82,0.00,,SKC,0.00,VWS V14.00,2013-08-08 10:10:00,
2013-08-08 06:15:00,74.1,68.3,29.95,ENE,76,0.0,3.0,82,0.00,,SKC,0.00,VWS V14.00,2013-08-08 10:15:00,
2013-08-08 06:21:00,74.1,68.3,29.94,ENE,76,2.0,3.0,82,0.00,,SKC,0.00,VWS V14.00,2013-08-08 10:21:00,
2013-08-08 06:26:00,74.1,68.3,29.94,ENE,76,0.0,0.0,82,0.00,,SKC,0.00,VWS V14.00,2013-08-08 10:26:00,
2013-08-08 06:31:00,74.1,68.3,29.94,ENE,76,0.0,2.0,82,0.00,,SKC,0.00,VWS V14.00,2013-08-08 10:31:00,
2013-08-08 06:36:00,74.1,68.3,29.94,ENE,76,0.0,0.0,82,0.00,,SKC,0.00,VWS V14.00,2013-08-08 10:36:00,
2013-08-08 06:41:00,74.1,68.3,29.94,ENE,76,2.0,2.0,82,0.00,,SKC,0.00,VWS V14.00,2013-08-08 10:41:00,
2013-08-08 06:46:00,74.1,68.3,29.94,ENE,76,0.0,0.0,82,0.00,,SKC,0.00,VWS V14.00,2013-08-08 10:46:00,
2013-08-08 06:50:00,74.1,68.3,29.95,ENE,76,0.0,0.0,82,0.00,,SKC,0.00,VWS V14.00,2013-08-08 10:50:00,
2013-08-08 06:55:00,74.3,68.4,29.95,ENE,76,0.0,0.0,82,0.00,,SKC,0.00,VWS V14.00,2013-08-08 10:55:00,
2013-08-08 07:01:00,74.3,68.4,29.95,ENE,76,0.0,0.0,82,0.00,,SKC,0.00,VWS V14.00,2013-08-08 11:01:00,
2013-08-08 07:05:00,74.3,68.4,29.96,ENE,73,0.0,0.0,82,0.00,,SKC,0.00,VWS V14.00,2013-08-08 11:05:00,
2013-08-08 07:10:00,74.3,68.4,29.96,ENE,73,0.0,0.0,82,0.00,,SKC,0.00,VWS V14.00,2013-08-08 11:10:00,
2013-08-08 07:15:00,74.3,68.4,29.96,ENE,73,0.0,0.0,82,0.00,,SKC,0.00,VWS V14.00,2013-08-08 11:15:00,
2013-08-08 07:20:00,74.5,68.7,29.96,ENE,73,0.0,0.0,82,0.00,,SKC,0.00,VWS V14.00,2013-08-08 11:20:00,
2013-08-08 07:25:00,74.5,68.7,29.96,ENE,73,0.0,0.0,82,0.00,,SKC,0.00,VWS V14.00,2013-08-08 11:25:00,
2013-08-08 07:30:00,74.5,68.7,29.96,ENE,73,0.0,0.0,82,0.00,,SKC,0.00,VWS V14.00,2013-08-08 11:30:00,
2013-08-08 07:35:00,74.5,68.7,30.03,ENE,73,0.0,0.0,82,0.00,,SKC,0.00,VWS V14.00,2013-08-08 11:35:00,
2013-08-08 07:40:00,74.5,68.7,30.03,ENE,73,0.0,0.0,82,0.00,,SKC,0.00,VWS V14.00,2013-08-08 11:40:00,
2013-08-08 07:45:00,74.5,68.7,30.03,ENE,73,0.0,0.0,82,0.00,,SKC,0.00,VWS V14.00,2013-08-08 11:45:00,
2013-08-08 07:50:00,74.5,68.7,30.03,ENE,73,0.0,0.0,82,0.00,,SKC,0.00,VWS V14.00,2013-08-08 11:50:00,
2013-08-08 07:55:00,74.5,68.7,30.03,ENE,73,0.0,0.0,82,0.00,,SKC,0.00,VWS V14.00,2013-08-08 11:55:00,
2013-08-08 08:00:00,74.5,68.7,30.03,ENE,73,0.0,0.0,82,0.00,,SKC,0.00,VWS V14.00,2013-08-08 12:00:00,
2013-08-08 08:05:00,74.5,68.7,30.03,ENE,73,0.0,0.0,82,0.00,,SKC,0.00,VWS V14.00,2013-08-08 12:05:00,
2013-08-08 08:10:00,74.5,68.7,30.03,ENE,73,0.0,0.0,82,0.00,,SKC,0.00,VWS V14.00,2013-08-08 12:10:00,
2013-08-08 08:15:00,74.5,68.7,30.03,ENE,73,0.0,0.0,82,0.00,,SKC,0.00,VWS V14.00,2013-08-08 12:15:00,
2013-08-08 08:20:00,74.5,68.7,30.03,ENE,73,0.0,0.0,82,0.00,,SKC,0.00,VWS V14.00,2013-08-08 12:20:00,
2013-08-08 08:25:00,74.5,68.7,30.03,ENE,73,0.0,0.0,82,0.00,,SKC,0.00,VWS V14.00,2013-08-08 12:25:00,
2013-08-08 08:30:00,74.5,68.7,30.03,ENE,73,0.0,0.0,82,0.00,,SKC,0.00,VWS V14.00,2013-08-08 12:30:00,
2013-08-08 08:35:00,74.5,68.7,30.03,ENE,73,0.0,0.0,82,0.00,,SKC,0.00,VWS V14.00,2013-08-08 12:35:00,
2013-08-08 08:40:00,74.5,68.7,30.03,ENE,73,0.0,0.0,82,0.00,,SKC,0.00,VWS V14.00,2013-08-08 12:40:00,
2013-08-08 08:45:00,74.5,68.7,30.03,ENE,73,0.0,0.0,82,0.00,,SKC,0.00,VWS V14.00,2013-08-08 12:45:00,
2013-08-08 08:50:00,74.5,68.7,30.04,ENE,73,0.0,0.0,82,0.00,,SKC,0.00,VWS V14.00,2013-08-08 12:50:00,
2013-08-08 08:55:00,74.5,68.7,30.04,ENE,73,0.0,0.0,82,0.00,,SKC,0.00,VWS V14.00,2013-08-08 12:55:00,
2013-08-08 09:00:00,74.5,68.7,30.04,ENE,73,0.0,0.0,82,0.00,,SKC,0.00,VWS V14.00,2013-08-08 13:00:00,
2013-08-08 09:05:00,74.5,68.7,30.04,ENE,73,0.0,0.0,82,0.00,,SKC,0.00,VWS V14.00,2013-08-08 13:05:00,
2013-08-08 09:10:00,74.5,68.7,30.04,ENE,73,0.0,0.0,82,0.00,,SKC,0.00,VWS V14.00,2013-08-08 13:10:00,
2013-08-08 09:15:00,74.5,68.7,30.04,ENE,73,0.0,0.0,82,0.00,,SKC,0.00,VWS V14.00,2013-08-08 13:15:00,
2013-08-08 09:20:00,74.5,68.7,30.05,ENE,73,0.0,0.0,82,0.00,,SKC,0.00,VWS V14.00,2013-08-08 13:20:00,
2013-08-08 09:25:00,74.5,68.7,30.05,ENE,73,0.0,0.0,82,0.00,,SKC,0.00,VWS V14.00,2013-08-08 13:25:00,
2013-08-08 09:30:00,74.5,68.7,30.05,ENE,73,0.0,0.0,82,0.00,,SKC,0.00,VWS V14.00,2013-08-08 13:30:00,
2013-08-08 09:35:00,74.5,68.7,30.04,ENE,73,0.0,0.0,82,0.00,,SKC,0.00,VWS V14.00,2013-08-08 13:35:00,
2013-08-08 09:40:00,74.5,68.7,30.04,ENE,73,0.0,0.0,82,0.00,,SKC,0.00,VWS V14.00,2013-08-08 13:40:00,
2013-08-08 09:45:00,74.5,68.7,30.04,ENE,73,0.0,0.0,82,0.00,,SKC,0.00,VWS V14.00,2013-08-08 13:45:00,
2013-08-08 09:50:00,74.5,68.7,30.05,ENE,73,0.0,0.0,82,0.00,,SKC,0.00,VWS V14.00,2013-08-08 13:50:00,
2013-08-08 09:55:00,74.5,68.7,30.05,ENE,73,0.0,0.0,82,0.00,,SKC,0.00,VWS V14.00,2013-08-08 13:55:00,
2013-08-08 10:00:00,76.2,70.3,30.05,ENE,78,0.0,0.0,82,0.00,,SKC,0.00,VWS V14.00,2013-08-08 14:00:00,
2013-08-08 10:05:00,76.2,70.3,30.00,ENE,78,0.0,0.0,82,0.00,,SKC,0.00,VWS V14.00,2013-08-08 14:05:00,
2013-08-08 10:10:00,76.2,70.3,30.00,ENE,78,0.0,0.0,82,0.00,,SKC,0.00,VWS V14.00,2013-08-08 14:10:00,
2013-08-08 10:15:00,76.2,70.3,30.00,ENE,78,0.0,0.0,82,0.00,,SKC,0.00,VWS V14.00,2013-08-08 14:15:00,
2013-08-08 10:20:00,76.2,70.3,30.00,ENE,78,0.0,0.0,82,0.00,,SKC,0.00,VWS V14.00,2013-08-08 14:20:00,
2013-08-08 10:25:00,76.2,70.3,30.00,ENE,78,0.0,0.0,82,0.00,,SKC,0.00,VWS V14.00,2013-08-08 14:25:00,
2013-08-08 10:30:00,76.2,70.3,30.00,ENE,78,0.0,0.0,82,0.00,,SKC,0.00,VWS V14.00,2013-08-08 14:30:00,
2013-08-08 10:35:00,76.2,70.3,29.99,ENE,78,0.0,0.0,82,0.00,,SKC,0.00,VWS V14.00,2013-08-08 14:35:00,
2013-08-08 10:40:00,76.2,70.3,29.99,ENE,78,0.0,0.0,82,0.00,,SKC,0.00,VWS V14.00,2013-08-08 14:40:00,
2013-08-08 10:45:00,76.2,70.3,29.99,ENE,78,0.0,0.0,82,0.00,,SKC,0.00,VWS V14.00,2013-08-08 14:45:00,
2013-08-08 10:50:00,76.2,70.3,29.99,ENE,78,0.0,0.0,82,0.00,,SKC,0.00,VWS V14.00,2013-08-08 14:50:00,
2013-08-08 10:55:00,76.2,70.3,29.99,ENE,78,0.0,0.0,82,0.00,,SKC,0.00,VWS V14.00,2013-08-08 14:55:00,
2013-08-08 11:00:00,76.2,70.3,29.99,ENE,78,0.0,0.0,82,0.00,,SKC,0.00,VWS V14.00,2013-08-08 15:00:00,
2013-08-08 11:05:00,80.1,69.9,29.98,South,169,0.0,2.0,71,0.00,,SKC,0.00,VWS V14.00,2013-08-08 15:05:00,
2013-08-08 11:10:00,80.6,69.5,29.98,South,169,0.0,4.0,69,0.00,,SKC,0.00,VWS V14.00,2013-08-08 15:10:00,
2013-08-08 11:15:00,81.0,69.4,29.98,SSE,161,0.0,0.0,68,0.00,,SKC,0.00,VWS V14.00,2013-08-08 15:15:00,
2013-08-08 11:20:00,81.0,69.4,29.98,SSE,161,0.0,0.0,68,0.00,,SKC,0.00,VWS V14.00,2013-08-08 15:20:00,
2013-08-08 11:25:00,81.0,69.4,29.98,SSE,161,0.0,0.0,68,0.00,,SKC,0.00,VWS V14.00,2013-08-08 15:25:00,
2013-08-08 11:30:00,81.0,69.4,29.98,SSE,161,0.0,0.0,68,0.00,,SKC,0.00,VWS V14.00,2013-08-08 15:30:00,
2013-08-08 11:35:00,81.0,69.4,30.05,SSE,161,0.0,0.0,68,0.00,,SKC,0.00,VWS V14.00,2013-08-08 15:35:00,
2013-08-08 11:40:00,81.0,69.4,30.05,SSE,161,0.0,0.0,68,0.00,,SKC,0.00,VWS V14.00,2013-08-08 15:40:00,
2013-08-08 11:45:00,81.0,69.4,30.05,SSE,161,0.0,0.0,68,0.00,,SKC,0.00,VWS V14.00,2013-08-08 15:45:00,
2013-08-08 11:50:00,81.0,69.4,30.06,SSE,161,0.0,0.0,68,0.00,,SKC,0.00,VWS V14.00,2013-08-08 15:50:00,
2013-08-08 11:55:00,81.0,69.4,30.06,SSE,161,0.0,0.0,68,0.00,,SKC,0.00,VWS V14.00,2013-08-08 15:55:00,
2013-08-08 12:00:00,82.3,69.8,30.06,SW,215,0.0,5.0,66,0.00,,SKC,0.00,VWS V14.00,2013-08-08 16:00:00,
2013-08-08 12:05:00,82.1,69.6,29.99,SW,217,4.0,4.0,66,0.00,,SKC,0.00,VWS V14.00,2013-08-08 16:05:00,
2013-08-08 12:10:00,81.7,69.7,29.99,West,273,5.0,7.0,67,0.00,,SKC,0.00,VWS V14.00,2013-08-08 16:10:00,
2013-08-08 12:15:00,81.5,69.9,29.99,West,264,5.0,5.0,68,0.00,,SKC,0.00,VWS V14.00,2013-08-08 16:15:00,
2013-08-08 12:20:00,81.3,69.7,29.99,West,263,3.0,7.0,68,0.00,,SKC,0.00,VWS V14.00,2013-08-08 16:20:00,
2013-08-08 12:25:00,81.1,70.0,29.99,WNW,284,7.0,10.0,69,0.00,,SKC,0.00,VWS V14.00,2013-08-08 16:25:00,
2013-08-08 12:30:00,81.1,70.0,29.99,WNW,287,5.0,10.0,69,0.00,,SKC,0.00,VWS V14.00,2013-08-08 16:30:00,
2013-08-08 12:35:00,81.1,69.6,29.99,West,281,3.0,4.0,68,0.00,,SKC,0.00,VWS V14.00,2013-08-08 16:35:00,
2013-08-08 12:40:00,81.1,69.6,29.99,West,269,5.0,6.0,68,0.00,,SKC,0.00,VWS V14.00,2013-08-08 16:40:00,
2013-08-08 12:45:00,81.3,69.7,29.99,West,270,1.0,1.0,68,0.00,,SKC,0.00,VWS V14.00,2013-08-08 16:45:00,
2013-08-08 12:50:00,81.3,69.7,29.98,West,270,1.0,1.0,68,0.00,,SKC,0.00,VWS V14.00,2013-08-08 16:50:00,
2013-08-08 12:55:00,81.9,70.3,29.98,NNW,336,5.0,10.0,68,0.00,,SKC,0.00,VWS V14.00,2013-08-08 16:55:00,
2013-08-08 13:00:00,81.9,70.3,29.98,NNW,336,4.0,6.0,68,0.00,,SKC,0.00,VWS V14.00,2013-08-08 17:00:00,
2013-08-08 13:05:00,81.9,69.9,29.97,NNW,336,3.0,6.0,67,0.00,,SKC,0.00,VWS V14.00,2013-08-08 17:05:00,
2013-08-08 13:10:00,82.3,69.8,29.97,NNW,336,0.0,4.0,66,0.00,,SKC,0.00,VWS V14.00,2013-08-08 17:10:00,
2013-08-08 13:15:00,82.4,69.5,29.97,NNW,333,0.0,4.0,65,0.00,,SKC,0.00,VWS V14.00,2013-08-08 17:15:00,
2013-08-08 13:20:00,82.8,69.4,29.97,NNW,334,0.0,0.0,64,0.00,,SKC,0.00,VWS V14.00,2013-08-08 17:20:00,
2013-08-08 13:25:00,83.4,69.9,29.97,NNW,334,0.0,0.0,64,0.00,,SKC,0.00,VWS V14.00,2013-08-08 17:25:00,
2013-08-08 13:30:00,83.6,69.7,29.97,NNW,333,0.0,1.0,63,0.00,,SKC,0.00,VWS V14.00,2013-08-08 17:30:00,
2013-08-08 13:35:00,83.7,68.8,29.97,NNW,333,0.0,1.0,61,0.00,,SKC,0.00,VWS V14.00,2013-08-08 17:35:00,
2013-08-08 13:40:00,83.7,69.3,29.97,NNW,333,0.0,0.0,62,0.00,,SKC,0.00,VWS V14.00,2013-08-08 17:40:00,
2013-08-08 13:45:00,83.6,69.7,29.97,SSW,211,0.0,6.0,63,0.00,,SKC,0.00,VWS V14.00,2013-08-08 17:45:00,
2013-08-08 13:50:00,83.4,69.9,29.96,SSW,211,0.0,0.0,64,0.00,,SKC,0.00,VWS V14.00,2013-08-08 17:50:00,
2013-08-08 13:55:00,83.2,70.2,29.96,SSW,211,0.0,0.0,65,0.00,,SKC,0.00,VWS V14.00,2013-08-08 17:55:00,
2013-08-08 14:00:00,83.2,70.2,29.96,SSW,209,0.0,2.0,65,0.00,,SKC,0.00,VWS V14.00,2013-08-08 18:00:00,
2013-08-08 14:05:00,83.2,70.2,29.97,SSE,161,5.0,6.0,65,0.00,,SKC,0.00,VWS V14.00,2013-08-08 18:05:00,
2013-08-08 14:10:00,83.2,70.2,29.97,South,174,0.0,9.0,65,0.00,,SKC,0.00,VWS V14.00,2013-08-08 18:10:00,
2013-08-08 14:15:00,83.6,70.1,29.97,South,173,6.0,9.0,64,0.00,,SKC,0.00,VWS V14.00,2013-08-08 18:15:00,
2013-08-08 14:20:00,83.7,69.8,29.97,South,173,4.0,9.0,63,0.00,,SKC,0.00,VWS V14.00,2013-08-08 18:20:00,
2013-08-08 14:25:00,83.7,69.8,29.97,South,173,4.0,9.0,63,0.00,,SKC,0.00,VWS V14.00,2013-08-08 18:25:00,
2013-08-08 14:30:00,83.7,69.8,29.97,South,173,4.0,4.0,63,0.00,,SKC,0.00,VWS V14.00,2013-08-08 18:30:00,
2013-08-08 14:35:00,83.7,69.8,30.05,South,173,4.0,4.0,63,0.00,,SKC,0.00,VWS V14.00,2013-08-08 18:35:00,
2013-08-08 14:40:00,83.7,69.8,30.05,South,173,4.0,4.0,63,0.00,,SKC,0.00,VWS V14.00,2013-08-08 18:40:00,
2013-08-08 14:45:00,83.7,69.8,30.05,South,173,4.0,4.0,63,0.00,,SKC,0.00,VWS V14.00,2013-08-08 18:45:00,
2013-08-08 14:50:00,83.7,69.8,30.05,South,173,4.0,4.0,63,0.00,,SKC,0.00,VWS V14.00,2013-08-08 18:50:00,
2013-08-08 14:55:00,83.7,69.8,30.05,South,173,4.0,4.0,63,0.00,,SKC,0.00,VWS V14.00,2013-08-08 18:55:00,
2013-08-08 15:00:00,83.7,69.8,30.05,South,173,4.0,4.0,63,0.00,,SKC,0.00,VWS V14.00,2013-08-08 19:00:00,
2013-08-08 15:05:00,83.7,69.8,30.05,South,173,4.0,4.0,63,0.00,,SKC,0.00,VWS V14.00,2013-08-08 19:05:00,
2013-08-08 15:10:00,83.7,69.8,30.05,South,173,4.0,4.0,63,0.00,,SKC,0.00,VWS V14.00,2013-08-08 19:10:00,
2013-08-08 15:15:00,83.7,69.8,30.05,South,173,4.0,4.0,63,0.00,,SKC,0.00,VWS V14.00,2013-08-08 19:15:00,
2013-08-08 15:20:00,79.2,68.2,29.99,SE,145,5.0,6.0,69,0.00,,SKC,0.00,VWS V14.00,2013-08-08 19:20:00,
2013-08-08 15:25:00,78.8,68.2,29.99,SSE,161,4.0,9.0,70,0.00,,SKC,0.00,VWS V14.00,2013-08-08 19:25:00,
2013-08-08 15:30:00,78.8,68.2,29.99,SSE,161,4.0,4.0,70,0.00,,SKC,0.00,VWS V14.00,2013-08-08 19:30:00,
2013-08-08 15:35:00,78.6,68.8,29.97,SSE,158,0.0,4.0,72,0.00,,SKC,0.00,VWS V14.00,2013-08-08 19:35:00,
2013-08-08 15:40:00,78.3,68.9,29.97,SSE,158,0.0,5.0,73,0.00,,SKC,0.00,VWS V14.00,2013-08-08 19:40:00,
2013-08-08 15:45:00,78.3,68.9,29.97,SSE,158,0.0,5.0,73,0.00,,SKC,0.00,VWS V14.00,2013-08-08 19:45:00,
2013-08-08 15:50:00,78.3,69.7,29.97,SSE,158,1.0,4.0,75,0.01,,SKC,0.01,VWS V14.00,2013-08-08 19:50:00,
2013-08-08 15:55:00,78.3,70.1,29.97,SE,139,5.0,6.0,76,0.01,,SKC,0.01,VWS V14.00,2013-08-08 19:55:00,
2013-08-08 16:00:00,78.3,70.1,29.97,SE,139,5.0,5.0,76,0.01,,SKC,0.01,VWS V14.00,2013-08-08 20:00:00,
2013-08-08 16:05:00,79.2,69.8,29.96,South,170,5.0,5.0,73,0.01,,SKC,0.01,VWS V14.00,2013-08-08 20:05:00,
2013-08-08 16:10:00,79.9,69.2,29.96,SSW,197,7.0,11.0,70,0.01,,SKC,0.01,VWS V14.00,2013-08-08 20:10:00,
2013-08-08 16:15:00,80.6,68.6,29.96,SSE,157,0.0,11.0,67,0.01,,SKC,0.01,VWS V14.00,2013-08-08 20:15:00,
2013-08-08 16:20:00,80.6,68.6,29.96,South,173,1.0,9.0,67,0.01,,SKC,0.01,VWS V14.00,2013-08-08 20:20:00,
2013-08-08 16:25:00,80.8,68.8,29.96,SSE,148,4.0,4.0,67,0.01,,SKC,0.01,VWS V14.00,2013-08-08 20:25:00,
2013-08-08 16:30:00,80.8,68.4,29.96,SSE,158,0.0,10.0,66,0.01,,SKC,0.01,VWS V14.00,2013-08-08 20:30:00,
2013-08-08 16:35:00,81.0,68.6,29.95,SSE,157,2.0,10.0,66,0.01,,SKC,0.01,VWS V14.00,2013-08-08 20:35:00,
2013-08-08 16:40:00,81.1,68.2,29.95,SSE,155,9.0,11.0,65,0.01,,SKC,0.01,VWS V14.00,2013-08-08 20:40:00,
2013-08-08 16:45:00,81.1,68.2,29.95,SSE,155,9.0,11.0,65,0.01,,SKC,0.01,VWS V14.00,2013-08-08 20:45:00,
2013-08-08 16:50:00,81.9,69.4,29.95,South,185,1.0,9.0,66,0.01,,SKC,0.01,VWS V14.00,2013-08-08 20:50:00,
2013-08-08 16:55:00,82.3,68.9,29.95,SSE,165,5.0,9.0,64,0.01,,SKC,0.01,VWS V14.00,2013-08-08 20:55:00,
2013-08-08 17:00:00,82.3,68.9,29.95,SSE,165,5.0,5.0,64,0.00,,SKC,0.01,VWS V14.00,2013-08-08 21:00:00,
2013-08-08 17:05:00,82.3,68.9,29.97,SSE,165,5.0,5.0,64,0.00,,SKC,0.01,VWS V14.00,2013-08-08 21:05:00,
2013-08-08 17:10:00,82.3,68.9,29.97,SSE,165,5.0,5.0,64,0.00,,SKC,0.01,VWS V14.00,2013-08-08 21:10:00,
2013-08-08 17:16:00,82.3,68.9,29.97,SSE,165,5.0,5.0,64,0.00,,SKC,0.01,VWS V14.00,2013-08-08 21:16:00,
2013-08-08 17:21:00,83.7,68.3,29.97,SSE,157,3.0,5.0,60,0.00,,SKC,0.01,VWS V14.00,2013-08-08 21:21:00,
2013-08-08 17:26:00,84.3,68.4,29.97,South,176,0.0,4.0,59,0.00,,SKC,0.01,VWS V14.00,2013-08-08 21:26:00,
2013-08-08 17:31:00,84.5,68.6,29.97,South,175,2.0,4.0,59,0.00,,SKC,0.01,VWS V14.00,2013-08-08 21:31:00,
2013-08-08 17:37:00,84.7,67.8,29.95,SSW,195,3.0,7.0,57,0.00,,SKC,0.01,VWS V14.00,2013-08-08 21:37:00,
2013-08-08 17:42:00,84.9,68.5,29.95,South,190,0.0,5.0,58,0.00,,SKC,0.01,VWS V14.00,2013-08-08 21:42:00,
2013-08-08 17:47:00,85.3,67.3,29.95,SSW,194,2.0,4.0,55,0.00,,SKC,0.01,VWS V14.00,2013-08-08 21:47:00,
2013-08-08 17:52:00,85.7,67.2,29.94,SSW,201,0.0,7.0,54,0.00,,SKC,0.01,VWS V14.00,2013-08-08 21:52:00,
2013-08-08 17:57:00,86.1,68.1,29.94,SSW,195,7.0,10.0,55,0.00,,SKC,0.01,VWS V14.00,2013-08-08 21:57:00,
2013-08-08 18:02:00,86.3,67.2,29.94,South,175,0.0,10.0,53,0.00,,SKC,0.01,VWS V14.00,2013-08-08 22:02:00,
2013-08-08 18:07:00,86.3,68.2,29.95,South,181,0.0,0.0,55,0.00,,SKC,0.01,VWS V14.00,2013-08-08 22:07:00,
2013-08-08 18:12:00,86.3,68.2,29.95,South,177,0.0,1.0,55,0.00,,SKC,0.01,VWS V14.00,2013-08-08 22:12:00,
2013-08-08 18:17:00,85.9,67.9,29.95,South,183,0.0,1.0,55,0.00,,SKC,0.01,VWS V14.00,2013-08-08 22:17:00,
2013-08-08 18:22:00,85.3,67.8,29.95,South,176,7.0,7.0,56,0.00,,SKC,0.01,VWS V14.00,2013-08-08 22:22:00,
2013-08-08 18:27:00,84.9,69.0,29.95,South,174,0.0,0.0,59,0.00,,SKC,0.01,VWS V14.00,2013-08-08 22:27:00,
2013-08-08 18:30:00,84.3,68.9,29.95,South,173,0.0,1.0,60,0.00,,SKC,0.01,VWS V14.00,2013-08-08 22:30:00,
2013-08-08 18:32:00,84.9,69.0,29.95,South,174,1.0,1.0,59,0.00,,SKC,0.01,VWS V14.00,2013-08-08 22:32:00,
2013-08-08 18:37:00,84.3,68.9,29.95,South,173,0.0,1.0,60,0.00,,SKC,0.01,VWS V14.00,2013-08-08 22:37:00,
2013-08-08 18:42:00,83.7,68.8,29.95,South,173,0.0,0.0,61,0.00,,SKC,0.01,VWS V14.00,2013-08-08 22:42:00,
2013-08-08 18:47:00,83.6,69.2,29.95,South,173,0.0,0.0,62,0.00,,SKC,0.01,VWS V14.00,2013-08-08 22:47:00,
2013-08-08 18:53:00,83.4,69.0,29.95,South,173,0.0,0.0,62,0.00,,SKC,0.01,VWS V14.00,2013-08-08 22:53:00,
2013-08-08 18:58:00,83.4,69.0,29.95,South,173,0.0,0.0,62,0.00,,SKC,0.01,VWS V14.00,2013-08-08 22:58:00,
2013-08-08 19:03:00,83.4,69.0,29.95,South,173,0.0,0.0,62,0.00,,SKC,0.01,VWS V14.00,2013-08-08 23:03:00,
2013-08-08 19:08:00,83.4,69.0,29.97,South,173,0.0,0.0,62,0.00,,SKC,0.01,VWS V14.00,2013-08-08 23:08:00,
2013-08-08 19:13:00,83.4,69.0,29.97,South,173,0.0,0.0,62,0.00,,SKC,0.01,VWS V14.00,2013-08-08 23:13:00,
2013-08-08 19:18:00,82.1,67.8,29.97,South,171,0.0,0.0,62,0.00,,SKC,0.01,VWS V14.00,2013-08-08 23:18:00,
2013-08-08 19:24:00,81.9,69.4,29.94,South,171,0.0,2.0,66,0.00,,SKC,0.01,VWS V14.00,2013-08-08 23:24:00,
2013-08-08 19:29:00,81.5,69.5,29.94,South,171,0.0,0.0,67,0.00,,SKC,0.01,VWS V14.00,2013-08-08 23:29:00,
2013-08-08 19:30:00,81.3,69.3,29.95,South,171,0.0,0.0,67,0.00,,SKC,0.01,VWS V14.00,2013-08-08 23:30:00,
2013-08-08 19:35:00,81.3,69.3,29.95,South,171,0.0,0.0,67,0.00,,SKC,0.01,VWS V14.00,2013-08-08 23:35:00,
2013-08-08 19:41:00,81.1,69.6,29.95,South,171,0.0,0.0,68,0.00,,SKC,0.01,VWS V14.00,2013-08-08 23:41:00,
2013-08-08 19:46:00,81.1,69.6,29.95,South,171,0.0,0.0,68,0.00,,SKC,0.01,VWS V14.00,2013-08-08 23:46:00,
2013-08-08 19:51:00,81.0,69.4,29.94,South,171,0.0,0.0,68,0.00,,SKC,0.01,VWS V14.00,2013-08-08 23:51:00,
2013-08-08 19:56:00,81.0,70.3,29.94,South,170,0.0,1.0,70,0.00,,SKC,0.01,VWS V14.00,2013-08-08 23:56:00,
2013-08-08 20:01:00,81.1,70.4,29.94,SSE,161,0.0,1.0,70,0.00,,SKC,0.01,VWS V14.00,2013-08-09 00:01:00,
2013-08-08 20:06:00,81.1,70.4,29.96,SSE,161,0.0,0.0,70,0.00,,SKC,0.01,VWS V14.00,2013-08-09 00:06:00,
2013-08-08 20:11:00,81.1,70.4,29.96,SSE,161,0.0,0.0,70,0.00,,SKC,0.01,VWS V14.00,2013-08-09 00:11:00,
2013-08-08 20:16:00,81.1,70.4,29.96,SSE,161,0.0,0.0,70,0.00,,SKC,0.01,VWS V14.00,2013-08-09 00:16:00,
2013-08-08 20:21:00,81.1,70.4,30.03,SSE,161,0.0,0.0,70,0.00,,SKC,0.01,VWS V14.00,2013-08-09 00:21:00,
2013-08-08 20:26:00,80.6,70.8,30.03,SE,138,0.0,0.0,72,0.00,,SKC,0.01,VWS V14.00,2013-08-09 00:26:00,
2013-08-08 20:32:00,80.6,70.8,30.03,SE,135,0.0,0.0,72,0.00,,SKC,0.01,VWS V14.00,2013-08-09 00:32:00,
2013-08-08 20:39:00,80.4,71.0,29.97,SE,133,0.0,0.0,73,0.00,,SKC,0.01,VWS V14.00,2013-08-09 00:39:00,
2013-08-08 20:44:00,80.2,70.4,29.97,SE,133,0.0,0.0,72,0.00,,SKC,0.01,VWS V14.00,2013-08-09 00:44:00,
2013-08-08 20:49:00,80.1,70.7,29.97,SE,130,0.0,1.0,73,0.00,,SKC,0.01,VWS V14.00,2013-08-09 00:49:00,
2013-08-08 20:54:00,79.9,70.9,29.98,SE,130,0.0,1.0,74,0.00,,SKC,0.01,VWS V14.00,2013-08-09 00:54:00,
2013-08-08 20:59:00,79.7,70.7,29.98,SE,130,0.0,0.0,74,0.00,,SKC,0.01,VWS V14.00,2013-08-09 00:59:00,
2013-08-08 21:04:00,79.3,70.7,29.98,SE,130,0.0,0.0,75,0.00,,SKC,0.01,VWS V14.00,2013-08-09 01:04:00,
2013-08-08 21:09:00,79.2,71.0,29.98,SE,130,0.0,0.0,76,0.00,,SKC,0.01,VWS V14.00,2013-08-09 01:09:00,
2013-08-08 21:14:00,79.0,70.8,29.98,SE,130,0.0,0.0,76,0.00,,SKC,0.01,VWS V14.00,2013-08-09 01:14:00,
2013-08-08 21:19:00,78.6,70.4,29.98,SE,130,0.0,0.0,76,0.00,,SKC,0.01,VWS V14.00,2013-08-09 01:19:00,
2013-08-08 21:24:00,78.5,70.3,29.99,SE,130,0.0,0.0,76,0.00,,SKC,0.01,VWS V14.00,2013-08-09 01:24:00,
2013-08-08 21:30:00,78.5,70.3,29.99,SE,130,0.0,0.0,76,0.00,,SKC,0.01,VWS V14.00,2013-08-09 01:30:00,
2013-08-08 21:35:00,78.5,70.7,29.99,SE,130,0.0,0.0,77,0.00,,SKC,0.01,VWS V14.00,2013-08-09 01:35:00,
2013-08-08 21:41:00,78.3,70.5,29.99,SE,130,0.0,0.0,77,0.00,,SKC,0.01,VWS V14.00,2013-08-09 01:41:00,
2013-08-08 21:46:00,78.3,70.9,29.99,SE,130,0.0,0.0,78,0.00,,SKC,0.01,VWS V14.00,2013-08-09 01:46:00,
2013-08-08 21:51:00,78.1,70.7,29.98,SE,130,0.0,0.0,78,0.00,,SKC,0.01,VWS V14.00,2013-08-09 01:51:00,
2013-08-08 21:56:00,77.9,70.5,29.98,SE,130,0.0,0.0,78,0.00,,SKC,0.01,VWS V14.00,2013-08-09 01:56:00,
2013-08-08 22:01:00,77.6,70.2,29.98,SE,130,0.0,1.0,78,0.00,,SKC,0.01,VWS V14.00,2013-08-09 02:01:00,
2013-08-08 22:06:00,77.4,70.0,29.98,SE,130,0.0,0.0,78,0.00,,SKC,0.01,VWS V14.00,2013-08-09 02:06:00,
2013-08-08 22:11:00,77.2,69.8,29.98,SE,130,0.0,0.0,78,0.00,,SKC,0.01,VWS V14.00,2013-08-09 02:11:00,
2013-08-08 22:16:00,77.2,69.8,29.98,SE,130,4.0,5.0,78,0.00,,SKC,0.01,VWS V14.00,2013-08-09 02:16:00,
2013-08-08 22:22:00,77.2,70.2,29.97,SE,130,4.0,7.0,79,0.00,,SKC,0.01,VWS V14.00,2013-08-09 02:22:00,
2013-08-08 22:27:00,77.1,69.7,29.97,SE,130,0.0,5.0,78,0.00,,SKC,0.01,VWS V14.00,2013-08-09 02:27:00,
2013-08-08 22:32:00,77.1,69.7,29.97,SE,130,0.0,5.0,78,0.00,,SKC,0.01,VWS V14.00,2013-08-09 02:32:00,
2013-08-08 22:37:00,77.1,69.7,29.97,SE,130,0.0,0.0,78,0.00,,SKC,0.01,VWS V14.00,2013-08-09 02:37:00,
2013-08-08 22:42:00,77.1,69.7,29.97,SE,130,0.0,0.0,78,0.00,,SKC,0.01,VWS V14.00,2013-08-09 02:42:00,
2013-08-08 22:47:00,76.9,69.5,29.97,SE,130,0.0,0.0,78,0.00,,SKC,0.01,VWS V14.00,2013-08-09 02:47:00,
2013-08-08 22:52:00,77.1,70.1,29.97,SE,129,0.0,0.0,79,0.00,,SKC,0.01,VWS V14.00,2013-08-09 02:52:00,
2013-08-08 22:58:00,77.4,70.0,29.97,SE,129,0.0,0.0,78,0.00,,SKC,0.01,VWS V14.00,2013-08-09 02:58:00,
2013-08-08 23:03:00,77.4,70.0,29.97,SE,129,0.0,0.0,78,0.00,,SKC,0.01,VWS V14.00,2013-08-09 03:03:00,
2013-08-08 23:08:00,77.4,70.0,29.97,SE,129,0.0,0.0,78,0.00,,SKC,0.01,VWS V14.00,2013-08-09 03:08:00,
2013-08-08 23:13:00,77.2,69.8,29.97,SE,129,0.0,0.0,78,0.00,,SKC,0.01,VWS V14.00,2013-08-09 03:13:00,
2013-08-08 23:18:00,77.2,69.8,29.97,SE,129,0.0,0.0,78,0.00,,SKC,0.01,VWS V14.00,2013-08-09 03:18:00,
2013-08-08 23:23:00,77.1,69.7,29.96,SE,129,0.0,0.0,78,0.00,,SKC,0.01,VWS V14.00,2013-08-09 03:23:00,
2013-08-08 23:28:00,77.1,69.7,29.96,SE,129,0.0,0.0,78,0.00,,SKC,0.01,VWS V14.00,2013-08-09 03:28:00,
2013-08-08 23:33:00,77.1,70.1,29.96,SE,129,0.0,0.0,79,0.00,,SKC,0.01,VWS V14.00,2013-08-09 03:33:00,
2013-08-08 23:38:00,76.9,69.9,29.95,SE,129,0.0,0.0,79,0.00,,SKC,0.01,VWS V14.00,2013-08-09 03:38:00,
2013-08-08 23:43:00,76.9,70.3,29.95,SE,129,0.0,1.0,80,0.00,,SKC,0.01,VWS V14.00,2013-08-09 03:43:00,
2013-08-08 23:48:00,76.9,70.3,29.95,SE,128,0.0,1.0,80,0.00,,SKC,0.01,VWS V14.00,2013-08-09 03:48:00,
2013-08-08 23:53:00,76.9,70.3,29.95,SE,126,0.0,1.0,80,0.00,,SKC,0.01,VWS V14.00,2013-08-09 03:53:00,
2013-08-08 23:58:00,77.1,70.5,29.95,SE,126,0.0,0.0,80,0.00,,SKC,0.01,VWS V14.00,2013-08-09 03:58:00,